owner,sensor,date,latitude,longitude,relative_humidity,qcFlag 
LUMCON,ioos:station:LUMCON:105:1,2010-01-07T01:00:00Z,29.1874,-90.6654,67.4,1111122 
LUMCON,ioos:station:LUMCON:105:1,2010-01-07T02:00:00Z,29.1874,-90.6654,79.5,1111122 
LUMCON,ioos:station:LUMCON:105:1,2010-01-07T03:00:00Z,29.1874,-90.6654,77.9,1111122 
LUMCON,ioos:station:LUMCON:105:1,2010-01-07T04:00:00Z,29.1874,-90.6654,80.7,1111122 
LUMCON,ioos:station:LUMCON:105:1,2010-01-07T05:00:00Z,29.1874,-90.6654,81.3,1111122 
LUMCON,ioos:station:LUMCON:105:1,2010-01-07T06:00:00Z,29.1874,-90.6654,81.3,1111122 
LUMCON,ioos:station:LUMCON:105:1,2010-01-07T07:00:00Z,29.1874,-90.6654,83.0,1111122 
LUMCON,ioos:station:LUMCON:105:1,2010-01-07T08:00:00Z,29.1874,-90.6654,83.5,1111122 
LUMCON,ioos:station:LUMCON:105:1,2010-01-07T09:00:00Z,29.1874,-90.6654,85.3,1111122 
LUMCON,ioos:station:LUMCON:105:1,2010-01-07T10:00:00Z,29.1874,-90.6654,87.7,1111122 
LUMCON,ioos:station:LUMCON:105:1,2010-01-07T11:00:00Z,29.1874,-90.6654,90.8,1111122 
LUMCON,ioos:station:LUMCON:105:1,2010-01-07T12:00:00Z,29.1874,-90.6654,94.0,1111122 
LUMCON,ioos:station:LUMCON:105:1,2010-01-07T13:00:00Z,29.1874,-90.6654,94.7,1111122 
LUMCON,ioos:station:LUMCON:105:1,2010-01-07T14:00:00Z,29.1874,-90.6654,92.8,1111122 
LUMCON,ioos:station:LUMCON:105:1,2010-01-07T15:00:00Z,29.1874,-90.6654,91.7,1111122 
LUMCON,ioos:station:LUMCON:105:1,2010-01-07T16:00:00Z,29.1874,-90.6654,89.9,1111122 
LUMCON,ioos:station:LUMCON:105:1,2010-01-07T17:00:00Z,29.1874,-90.6654,89.4,1111122 
LUMCON,ioos:station:LUMCON:105:1,2010-01-07T18:00:00Z,29.1874,-90.6654,91.8,1111122 
LUMCON,ioos:station:LUMCON:105:1,2010-01-07T19:00:00Z,29.1874,-90.6654,91.8,1111122 
LUMCON,ioos:station:LUMCON:105:1,2010-01-07T20:00:00Z,29.1874,-90.6654,94.8,1111122 
LUMCON,ioos:station:LUMCON:105:1,2010-01-07T21:00:00Z,29.1874,-90.6654,96.2,1111122 
LUMCON,ioos:station:LUMCON:105:1,2010-01-08T02:00:00Z,29.1874,-90.6654,93.9,1111122 
LUMCON,ioos:station:LUMCON:105:1,2010-01-08T03:00:00Z,29.1874,-90.6654,91.2,1111122 
LUMCON,ioos:station:LUMCON:105:1,2010-01-08T04:00:00Z,29.1874,-90.6654,84.3,1111122 
LUMCON,ioos:station:LUMCON:105:1,2010-01-08T05:00:00Z,29.1874,-90.6654,85.4,1111122 
LUMCON,ioos:station:LUMCON:105:1,2010-01-09T16:00:00Z,29.1874,-90.6654,85.0,1111122 
LUMCON,ioos:station:LUMCON:105:1,2010-01-12T04:00:00Z,29.1874,-90.6654,79.5,1111122 
LUMCON,ioos:station:LUMCON:105:1,2010-01-12T05:00:00Z,29.1874,-90.6654,87.4,1111122 
LUMCON,ioos:station:LUMCON:105:1,2010-01-12T06:00:00Z,29.1874,-90.6654,89.9,1111122 
LUMCON,ioos:station:LUMCON:105:1,2010-01-12T07:00:00Z,29.1874,-90.6654,92.5,1111122 
LUMCON,ioos:station:LUMCON:105:1,2010-01-12T11:00:00Z,29.1874,-90.6654,95.2,1111122 
LUMCON,ioos:station:LUMCON:105:1,2010-01-12T12:00:00Z,29.1874,-90.6654,93.2,1111122 
LUMCON,ioos:station:LUMCON:105:1,2010-01-12T15:00:00Z,29.1874,-90.6654,87.6,1111122 
LUMCON,ioos:station:LUMCON:105:1,2010-01-12T16:00:00Z,29.1874,-90.6654,69.1,1111122 
LUMCON,ioos:station:LUMCON:105:1,2010-01-12T17:00:00Z,29.1874,-90.6654,63.9,1111122 
LUMCON,ioos:station:LUMCON:105:1,2010-01-12T18:00:00Z,29.1874,-90.6654,58.4,1111122 
LUMCON,ioos:station:LUMCON:105:1,2010-01-12T19:00:00Z,29.1874,-90.6654,49.2,1111122 
LUMCON,ioos:station:LUMCON:105:1,2010-01-12T20:00:00Z,29.1874,-90.6654,56.5,1111122 
LUMCON,ioos:station:LUMCON:105:1,2010-01-12T21:00:00Z,29.1874,-90.6654,55.8,1111122 
LUMCON,ioos:station:LUMCON:105:1,2010-01-12T22:00:00Z,29.1874,-90.6654,72.1,1111122 
LUMCON,ioos:station:LUMCON:105:1,2010-01-12T23:00:00Z,29.1874,-90.6654,66.8,1111122 
LUMCON,ioos:station:LUMCON:105:1,2010-01-13T00:00:00Z,29.1874,-90.6654,72.9,1111122 
LUMCON,ioos:station:LUMCON:105:1,2010-01-13T01:00:00Z,29.1874,-90.6654,74.8,1111122 
LUMCON,ioos:station:LUMCON:105:1,2010-01-13T02:00:00Z,29.1874,-90.6654,78.0,1111122 
LUMCON,ioos:station:LUMCON:105:1,2010-01-13T03:00:00Z,29.1874,-90.6654,82.9,1111122 
LUMCON,ioos:station:LUMCON:105:1,2010-01-13T04:00:00Z,29.1874,-90.6654,85.2,1111122 
LUMCON,ioos:station:LUMCON:105:1,2010-01-13T05:00:00Z,29.1874,-90.6654,78.3,1111122 
LUMCON,ioos:station:LUMCON:105:1,2010-01-13T06:00:00Z,29.1874,-90.6654,76.0,1111122 
LUMCON,ioos:station:LUMCON:105:1,2010-01-13T07:00:00Z,29.1874,-90.6654,74.8,1111122 
LUMCON,ioos:station:LUMCON:105:1,2010-01-13T08:00:00Z,29.1874,-90.6654,73.7,1111122 
LUMCON,ioos:station:LUMCON:105:1,2010-01-13T09:00:00Z,29.1874,-90.6654,74.6,1111122 
LUMCON,ioos:station:LUMCON:105:1,2010-01-13T10:00:00Z,29.1874,-90.6654,77.3,1111122 
LUMCON,ioos:station:LUMCON:105:1,2010-01-13T11:00:00Z,29.1874,-90.6654,80.1,1111122 
LUMCON,ioos:station:LUMCON:105:1,2010-01-13T12:00:00Z,29.1874,-90.6654,81.8,1111122 
LUMCON,ioos:station:LUMCON:105:1,2010-01-13T14:00:00Z,29.1874,-90.6654,86.0,1111122 
LUMCON,ioos:station:LUMCON:105:1,2010-01-13T15:00:00Z,29.1874,-90.6654,83.8,1111122 
LUMCON,ioos:station:LUMCON:105:1,2010-01-13T16:00:00Z,29.1874,-90.6654,79.2,1111122 
LUMCON,ioos:station:LUMCON:105:1,2010-01-13T17:00:00Z,29.1874,-90.6654,77.7,1111122 
LUMCON,ioos:station:LUMCON:105:1,2010-01-13T18:00:00Z,29.1874,-90.6654,76.2,1111122 
LUMCON,ioos:station:LUMCON:105:1,2010-01-13T19:00:00Z,29.1874,-90.6654,73.1,1111122 
LUMCON,ioos:station:LUMCON:105:1,2010-01-13T20:00:00Z,29.1874,-90.6654,69.3,1111122 
LUMCON,ioos:station:LUMCON:105:1,2010-01-13T21:00:00Z,29.1874,-90.6654,68.7,1111122 
LUMCON,ioos:station:LUMCON:105:1,2010-01-13T22:00:00Z,29.1874,-90.6654,73.2,1111122 
LUMCON,ioos:station:LUMCON:105:1,2010-01-13T23:00:00Z,29.1874,-90.6654,71.6,1111122 
LUMCON,ioos:station:LUMCON:105:1,2010-01-14T00:00:00Z,29.1874,-90.6654,76.3,1111122 
LUMCON,ioos:station:LUMCON:105:1,2010-01-14T01:00:00Z,29.1874,-90.6654,70.5,1111122 
LUMCON,ioos:station:LUMCON:105:1,2010-01-14T02:00:00Z,29.1874,-90.6654,78.4,1111122 
LUMCON,ioos:station:LUMCON:105:1,2010-01-14T03:00:00Z,29.1874,-90.6654,84.1,1111122 
LUMCON,ioos:station:LUMCON:105:1,2010-01-14T04:00:00Z,29.1874,-90.6654,85.8,1111122 
LUMCON,ioos:station:LUMCON:105:1,2010-01-14T05:00:00Z,29.1874,-90.6654,89.5,1111122 
LUMCON,ioos:station:LUMCON:105:1,2010-01-14T06:00:00Z,29.1874,-90.6654,90.7,1111122 
LUMCON,ioos:station:LUMCON:105:1,2010-01-14T07:00:00Z,29.1874,-90.6654,91.4,1111122 
LUMCON,ioos:station:LUMCON:105:1,2010-01-14T08:00:00Z,29.1874,-90.6654,91.4,1111122 
LUMCON,ioos:station:LUMCON:105:1,2010-01-14T09:00:00Z,29.1874,-90.6654,91.3,1111122 
LUMCON,ioos:station:LUMCON:105:1,2010-01-14T10:00:00Z,29.1874,-90.6654,90.1,1111122 
LUMCON,ioos:station:LUMCON:105:1,2010-01-14T11:00:00Z,29.1874,-90.6654,92.7,1111122 
LUMCON,ioos:station:LUMCON:105:1,2010-01-14T12:00:00Z,29.1874,-90.6654,92.7,1111122 
LUMCON,ioos:station:LUMCON:105:1,2010-01-14T13:00:00Z,29.1874,-90.6654,92.7,1111122 
LUMCON,ioos:station:LUMCON:105:1,2010-01-14T14:00:00Z,29.1874,-90.6654,89.5,1111122 
LUMCON,ioos:station:LUMCON:105:1,2010-01-14T15:00:00Z,29.1874,-90.6654,86.5,1111122 
LUMCON,ioos:station:LUMCON:105:1,2010-01-14T16:00:00Z,29.1874,-90.6654,82.5,1111122 
LUMCON,ioos:station:LUMCON:105:1,2010-01-14T17:00:00Z,29.1874,-90.6654,77.7,1111122 
LUMCON,ioos:station:LUMCON:105:1,2010-01-14T18:00:00Z,29.1874,-90.6654,76.8,1111122 
LUMCON,ioos:station:LUMCON:105:1,2010-01-14T19:00:00Z,29.1874,-90.6654,78.6,1111122 
LUMCON,ioos:station:LUMCON:105:1,2010-01-14T20:00:00Z,29.1874,-90.6654,77.0,1111122 
LUMCON,ioos:station:LUMCON:105:1,2010-01-14T21:00:00Z,29.1874,-90.6654,76.5,1111122 
LUMCON,ioos:station:LUMCON:105:1,2010-01-14T23:00:00Z,29.1874,-90.6654,78.9,1111122 
LUMCON,ioos:station:LUMCON:105:1,2010-01-15T00:00:00Z,29.1874,-90.6654,79.5,1111122 
LUMCON,ioos:station:LUMCON:105:1,2010-01-15T01:00:00Z,29.1874,-90.6654,86.2,1111122 
LUMCON,ioos:station:LUMCON:105:1,2010-01-15T02:00:00Z,29.1874,-90.6654,87.9,1111122 
LUMCON,ioos:station:LUMCON:105:1,2010-01-15T03:00:00Z,29.1874,-90.6654,86.1,1111122 
LUMCON,ioos:station:LUMCON:105:1,2010-01-15T04:00:00Z,29.1874,-90.6654,87.3,1111122 
LUMCON,ioos:station:LUMCON:105:1,2010-01-15T05:00:00Z,29.1874,-90.6654,88.5,1111122 
LUMCON,ioos:station:LUMCON:105:1,2010-01-15T06:00:00Z,29.1874,-90.6654,89.7,1111122 
LUMCON,ioos:station:LUMCON:105:1,2010-01-15T07:00:00Z,29.1874,-90.6654,91.5,1111122 
LUMCON,ioos:station:LUMCON:105:1,2010-01-15T08:00:00Z,29.1874,-90.6654,92.8,1111122 
LUMCON,ioos:station:LUMCON:105:1,2010-01-15T09:00:00Z,29.1874,-90.6654,92.8,1111122 
LUMCON,ioos:station:LUMCON:105:1,2010-01-15T10:00:00Z,29.1874,-90.6654,91.6,1111122 
LUMCON,ioos:station:LUMCON:105:1,2010-01-15T11:00:00Z,29.1874,-90.6654,90.3,1111122 
LUMCON,ioos:station:LUMCON:105:1,2010-01-15T12:00:00Z,29.1874,-90.6654,90.9,1111122 
LUMCON,ioos:station:LUMCON:105:1,2010-01-15T13:00:00Z,29.1874,-90.6654,92.2,1111122 
LUMCON,ioos:station:LUMCON:105:1,2010-01-15T14:00:00Z,29.1874,-90.6654,91.6,1111122 
LUMCON,ioos:station:LUMCON:105:1,2010-01-15T15:00:00Z,29.1874,-90.6654,91.0,1111122 
LUMCON,ioos:station:LUMCON:105:1,2010-01-15T16:00:00Z,29.1874,-90.6654,88.0,1111122 
LUMCON,ioos:station:LUMCON:105:1,2010-01-15T17:00:00Z,29.1874,-90.6654,86.3,1111122 
LUMCON,ioos:station:LUMCON:105:1,2010-01-15T19:00:00Z,29.1874,-90.6654,87.5,1111122 
LUMCON,ioos:station:LUMCON:105:1,2010-01-15T20:00:00Z,29.1874,-90.6654,93.6,1111122 
LUMCON,ioos:station:LUMCON:105:1,2010-01-15T21:00:00Z,29.1874,-90.6654,94.2,1111122 
LUMCON,ioos:station:LUMCON:105:1,2010-01-15T22:00:00Z,29.1874,-90.6654,91.1,1111122 
LUMCON,ioos:station:LUMCON:105:1,2010-01-16T04:00:00Z,29.1874,-90.6654,94.9,1111122 
LUMCON,ioos:station:LUMCON:105:1,2010-01-16T05:00:00Z,29.1874,-90.6654,96.1,1111122 
LUMCON,ioos:station:LUMCON:105:1,2010-01-16T06:00:00Z,29.1874,-90.6654,94.9,1111122 
LUMCON,ioos:station:LUMCON:105:1,2010-01-16T07:00:00Z,29.1874,-90.6654,95.5,1111122 
LUMCON,ioos:station:LUMCON:105:1,2010-01-16T08:00:00Z,29.1874,-90.6654,96.1,1111122 
LUMCON,ioos:station:LUMCON:105:1,2010-01-16T09:00:00Z,29.1874,-90.6654,96.8,1111122 
LUMCON,ioos:station:LUMCON:105:1,2010-01-16T10:00:00Z,29.1874,-90.6654,97.4,1111122 
LUMCON,ioos:station:LUMCON:105:1,2010-01-16T11:00:00Z,29.1874,-90.6654,97.4,1111122 
LUMCON,ioos:station:LUMCON:105:1,2010-01-16T13:00:00Z,29.1874,-90.6654,98.0,1111122 
LUMCON,ioos:station:LUMCON:105:1,2010-01-16T16:00:00Z,29.1874,-90.6654,97.4,1111122 
LUMCON,ioos:station:LUMCON:105:1,2010-01-16T17:00:00Z,29.1874,-90.6654,97.4,1111122 
LUMCON,ioos:station:LUMCON:105:1,2010-01-16T18:00:00Z,29.1874,-90.6654,98.1,1111122 
LUMCON,ioos:station:LUMCON:105:1,2010-01-16T19:00:00Z,29.1874,-90.6654,98.7,1111122 
LUMCON,ioos:station:LUMCON:105:1,2010-01-16T20:00:00Z,29.1874,-90.6654,98.1,1111122 
LUMCON,ioos:station:LUMCON:105:1,2010-01-16T21:00:00Z,29.1874,-90.6654,98.7,1111122 
LUMCON,ioos:station:LUMCON:105:1,2010-01-16T22:00:00Z,29.1874,-90.6654,100.0,1111122 
LUMCON,ioos:station:LUMCON:105:1,2010-01-16T23:00:00Z,29.1874,-90.6654,99.3,1111122 
LUMCON,ioos:station:LUMCON:105:1,2010-01-17T00:00:00Z,29.1874,-90.6654,99.3,1111122 
LUMCON,ioos:station:LUMCON:105:1,2010-01-17T01:00:00Z,29.1874,-90.6654,99.3,1111122 
LUMCON,ioos:station:LUMCON:105:1,2010-01-17T02:00:00Z,29.1874,-90.6654,99.3,1111122 
LUMCON,ioos:station:LUMCON:105:1,2010-01-17T03:00:00Z,29.1874,-90.6654,99.3,1111122 
LUMCON,ioos:station:LUMCON:105:1,2010-01-17T04:00:00Z,29.1874,-90.6654,99.3,1111122 
LUMCON,ioos:station:LUMCON:105:1,2010-01-17T05:00:00Z,29.1874,-90.6654,99.3,1111122 
LUMCON,ioos:station:LUMCON:105:1,2010-01-17T06:00:00Z,29.1874,-90.6654,98.0,1111122 
LUMCON,ioos:station:LUMCON:105:1,2010-01-17T07:00:00Z,29.1874,-90.6654,96.7,1111122 
LUMCON,ioos:station:LUMCON:105:1,2010-01-17T08:00:00Z,29.1874,-90.6654,97.3,1111122 
LUMCON,ioos:station:LUMCON:105:1,2010-01-17T09:00:00Z,29.1874,-90.6654,96.0,1111122 
LUMCON,ioos:station:LUMCON:105:1,2010-01-17T10:00:00Z,29.1874,-90.6654,95.4,1111122 
LUMCON,ioos:station:LUMCON:105:1,2010-01-17T11:00:00Z,29.1874,-90.6654,92.2,1111122 
LUMCON,ioos:station:LUMCON:105:1,2010-01-17T12:00:00Z,29.1874,-90.6654,90.9,1111122 
LUMCON,ioos:station:LUMCON:105:1,2010-01-17T13:00:00Z,29.1874,-90.6654,91.0,1111122 
LUMCON,ioos:station:LUMCON:105:1,2010-01-17T14:00:00Z,29.1874,-90.6654,90.3,1111122 
LUMCON,ioos:station:LUMCON:105:1,2010-01-17T15:00:00Z,29.1874,-90.6654,86.8,1111122 
LUMCON,ioos:station:LUMCON:105:1,2010-01-17T16:00:00Z,29.1874,-90.6654,80.4,1111122 
LUMCON,ioos:station:LUMCON:105:1,2010-01-17T17:00:00Z,29.1874,-90.6654,82.8,1111122 
LUMCON,ioos:station:LUMCON:105:1,2010-01-17T18:00:00Z,29.1874,-90.6654,84.0,1111122 
LUMCON,ioos:station:LUMCON:105:1,2010-01-17T19:00:00Z,29.1874,-90.6654,84.0,1111122 
LUMCON,ioos:station:LUMCON:105:1,2010-01-17T20:00:00Z,29.1874,-90.6654,83.4,1111122 
LUMCON,ioos:station:LUMCON:105:1,2010-01-17T22:00:00Z,29.1874,-90.6654,81.7,1111122 
LUMCON,ioos:station:LUMCON:105:1,2010-01-17T23:00:00Z,29.1874,-90.6654,83.9,1111122 
LUMCON,ioos:station:LUMCON:105:1,2010-01-18T00:00:00Z,29.1874,-90.6654,86.8,1111122 
LUMCON,ioos:station:LUMCON:105:1,2010-01-18T01:00:00Z,29.1874,-90.6654,89.2,1111122 
LUMCON,ioos:station:LUMCON:105:1,2010-01-18T02:00:00Z,29.1874,-90.6654,89.8,1111122 
LUMCON,ioos:station:LUMCON:105:1,2010-01-18T03:00:00Z,29.1874,-90.6654,89.8,1111122 
LUMCON,ioos:station:LUMCON:105:1,2010-01-18T04:00:00Z,29.1874,-90.6654,91.6,1111122 
LUMCON,ioos:station:LUMCON:105:1,2010-01-18T06:00:00Z,29.1874,-90.6654,93.5,1111122 
LUMCON,ioos:station:LUMCON:105:1,2010-01-18T07:00:00Z,29.1874,-90.6654,94.7,1111122 
LUMCON,ioos:station:LUMCON:105:1,2010-01-18T08:00:00Z,29.1874,-90.6654,94.1,1111122 
LUMCON,ioos:station:LUMCON:105:1,2010-01-18T09:00:00Z,29.1874,-90.6654,95.4,1111122 
LUMCON,ioos:station:LUMCON:105:1,2010-01-18T10:00:00Z,29.1874,-90.6654,95.4,1111122 
LUMCON,ioos:station:LUMCON:105:1,2010-01-18T11:00:00Z,29.1874,-90.6654,97.3,1111122 
LUMCON,ioos:station:LUMCON:105:1,2010-01-18T12:00:00Z,29.1874,-90.6654,96.7,1111122 
LUMCON,ioos:station:LUMCON:105:1,2010-01-18T13:00:00Z,29.1874,-90.6654,96.7,1111122 
LUMCON,ioos:station:LUMCON:105:1,2010-01-18T14:00:00Z,29.1874,-90.6654,94.7,1111122 
LUMCON,ioos:station:LUMCON:105:1,2010-01-18T15:00:00Z,29.1874,-90.6654,90.4,1111122 
LUMCON,ioos:station:LUMCON:105:1,2010-01-18T16:00:00Z,29.1874,-90.6654,88.2,1111122 
LUMCON,ioos:station:LUMCON:105:1,2010-01-18T17:00:00Z,29.1874,-90.6654,85.2,1111122 
LUMCON,ioos:station:LUMCON:105:1,2010-01-18T18:00:00Z,29.1874,-90.6654,82.4,1111122 
LUMCON,ioos:station:LUMCON:105:1,2010-01-18T19:00:00Z,29.1874,-90.6654,81.3,1111122 
LUMCON,ioos:station:LUMCON:105:1,2010-01-18T20:00:00Z,29.1874,-90.6654,79.2,1111122 
LUMCON,ioos:station:LUMCON:105:1,2010-01-18T21:00:00Z,29.1874,-90.6654,78.7,1111122 
LUMCON,ioos:station:LUMCON:105:1,2010-01-18T22:00:00Z,29.1874,-90.6654,80.9,1111122 
LUMCON,ioos:station:LUMCON:105:1,2010-01-18T23:00:00Z,29.1874,-90.6654,83.1,1111122 
LUMCON,ioos:station:LUMCON:105:1,2010-01-19T00:00:00Z,29.1874,-90.6654,87.5,1111122 
LUMCON,ioos:station:LUMCON:105:1,2010-01-19T01:00:00Z,29.1874,-90.6654,91.1,1111122 
LUMCON,ioos:station:LUMCON:105:1,2010-01-19T02:00:00Z,29.1874,-90.6654,91.7,1111122 
LUMCON,ioos:station:LUMCON:105:1,2010-01-19T03:00:00Z,29.1874,-90.6654,91.7,1111122 
LUMCON,ioos:station:LUMCON:105:1,2010-01-19T04:00:00Z,29.1874,-90.6654,92.9,1111122 
LUMCON,ioos:station:LUMCON:105:1,2010-01-19T05:00:00Z,29.1874,-90.6654,94.8,1111122 
LUMCON,ioos:station:LUMCON:105:1,2010-01-19T06:00:00Z,29.1874,-90.6654,96.7,1111122 
LUMCON,ioos:station:LUMCON:105:1,2010-01-19T07:00:00Z,29.1874,-90.6654,96.1,1111122 
LUMCON,ioos:station:LUMCON:105:1,2010-01-19T08:00:00Z,29.1874,-90.6654,96.7,1111122 
LUMCON,ioos:station:LUMCON:105:1,2010-01-19T09:00:00Z,29.1874,-90.6654,96.7,1111122 
LUMCON,ioos:station:LUMCON:105:1,2010-01-19T10:00:00Z,29.1874,-90.6654,96.1,1111122 
LUMCON,ioos:station:LUMCON:105:1,2010-01-19T11:00:00Z,29.1874,-90.6654,95.4,1111122 
LUMCON,ioos:station:LUMCON:105:1,2010-01-19T12:00:00Z,29.1874,-90.6654,96.1,1111122 
LUMCON,ioos:station:LUMCON:105:1,2010-01-19T13:00:00Z,29.1874,-90.6654,96.7,1111122 
LUMCON,ioos:station:LUMCON:105:1,2010-01-19T14:00:00Z,29.1874,-90.6654,96.1,1111122 
LUMCON,ioos:station:LUMCON:105:1,2010-01-19T15:00:00Z,29.1874,-90.6654,94.8,1111122 
LUMCON,ioos:station:LUMCON:105:1,2010-01-19T16:00:00Z,29.1874,-90.6654,93.0,1111122 
LUMCON,ioos:station:LUMCON:105:1,2010-01-19T17:00:00Z,29.1874,-90.6654,91.2,1111122 
LUMCON,ioos:station:LUMCON:105:1,2010-01-19T18:00:00Z,29.1874,-90.6654,91.8,1111122 
LUMCON,ioos:station:LUMCON:105:1,2010-01-19T19:00:00Z,29.1874,-90.6654,92.4,1111122 
LUMCON,ioos:station:LUMCON:105:1,2010-01-19T20:00:00Z,29.1874,-90.6654,93.0,1111122 
LUMCON,ioos:station:LUMCON:105:1,2010-01-19T21:00:00Z,29.1874,-90.6654,93.6,1111122 
LUMCON,ioos:station:LUMCON:105:1,2010-01-19T22:00:00Z,29.1874,-90.6654,92.4,1111122 
LUMCON,ioos:station:LUMCON:105:1,2010-01-19T23:00:00Z,29.1874,-90.6654,93.6,1111122 
LUMCON,ioos:station:LUMCON:105:1,2010-01-20T00:00:00Z,29.1874,-90.6654,94.9,1111122 
LUMCON,ioos:station:LUMCON:105:1,2010-01-20T01:00:00Z,29.1874,-90.6654,94.3,1111122 
LUMCON,ioos:station:LUMCON:105:1,2010-01-20T02:00:00Z,29.1874,-90.6654,94.9,1111122 
LUMCON,ioos:station:LUMCON:105:1,2010-01-20T03:00:00Z,29.1874,-90.6654,94.9,1111122 
LUMCON,ioos:station:LUMCON:105:1,2010-01-20T04:00:00Z,29.1874,-90.6654,95.5,1111122 
LUMCON,ioos:station:LUMCON:105:1,2010-01-20T05:00:00Z,29.1874,-90.6654,96.1,1111122 
LUMCON,ioos:station:LUMCON:105:1,2010-01-20T06:00:00Z,29.1874,-90.6654,96.1,1111122 
LUMCON,ioos:station:LUMCON:105:1,2010-01-20T07:00:00Z,29.1874,-90.6654,96.2,1111122 
LUMCON,ioos:station:LUMCON:105:1,2010-01-20T08:00:00Z,29.1874,-90.6654,96.8,1111122 
LUMCON,ioos:station:LUMCON:105:1,2010-01-20T09:00:00Z,29.1874,-90.6654,98.1,1111122 
LUMCON,ioos:station:LUMCON:105:1,2010-01-20T10:00:00Z,29.1874,-90.6654,98.1,1111122 
LUMCON,ioos:station:LUMCON:105:1,2010-01-20T11:00:00Z,29.1874,-90.6654,98.7,1111122 
LUMCON,ioos:station:LUMCON:105:1,2010-01-20T12:00:00Z,29.1874,-90.6654,99.3,1111122 
LUMCON,ioos:station:LUMCON:105:1,2010-01-20T13:00:00Z,29.1874,-90.6654,100.0,1111122 
LUMCON,ioos:station:LUMCON:105:1,2010-01-20T14:00:00Z,29.1874,-90.6654,98.1,1111122 
LUMCON,ioos:station:LUMCON:105:1,2010-01-20T15:00:00Z,29.1874,-90.6654,98.1,1111122 
LUMCON,ioos:station:LUMCON:105:1,2010-01-20T16:00:00Z,29.1874,-90.6654,98.7,1111122 
LUMCON,ioos:station:LUMCON:105:1,2010-01-20T17:00:00Z,29.1874,-90.6654,98.1,1111122 
LUMCON,ioos:station:LUMCON:105:1,2010-01-20T18:00:00Z,29.1874,-90.6654,97.5,1111122 
LUMCON,ioos:station:LUMCON:105:1,2010-01-20T19:00:00Z,29.1874,-90.6654,98.7,1111122 
LUMCON,ioos:station:LUMCON:105:1,2010-01-20T20:00:00Z,29.1874,-90.6654,99.4,1111122 
LUMCON,ioos:station:LUMCON:105:1,2010-01-20T21:00:00Z,29.1874,-90.6654,99.4,1111122 
LUMCON,ioos:station:LUMCON:105:1,2010-01-20T22:00:00Z,29.1874,-90.6654,99.4,1111122 
LUMCON,ioos:station:LUMCON:105:1,2010-01-20T23:00:00Z,29.1874,-90.6654,99.4,1111122 
LUMCON,ioos:station:LUMCON:105:1,2010-01-21T00:00:00Z,29.1874,-90.6654,98.1,1111122 
LUMCON,ioos:station:LUMCON:105:1,2010-01-21T01:00:00Z,29.1874,-90.6654,98.7,1111122 
LUMCON,ioos:station:LUMCON:105:1,2010-01-21T02:00:00Z,29.1874,-90.6654,98.7,1111122 
LUMCON,ioos:station:LUMCON:105:1,2010-01-21T03:00:00Z,29.1874,-90.6654,99.4,1111122 
LUMCON,ioos:station:LUMCON:105:1,2010-01-21T04:00:00Z,29.1874,-90.6654,98.7,1111122 
LUMCON,ioos:station:LUMCON:105:1,2010-01-21T05:00:00Z,29.1874,-90.6654,98.1,1111122 
LUMCON,ioos:station:LUMCON:105:1,2010-01-21T06:00:00Z,29.1874,-90.6654,98.7,1111122 
LUMCON,ioos:station:LUMCON:105:1,2010-01-21T07:00:00Z,29.1874,-90.6654,98.7,1111122 
LUMCON,ioos:station:LUMCON:105:1,2010-01-21T08:00:00Z,29.1874,-90.6654,98.1,1111122 
LUMCON,ioos:station:LUMCON:105:1,2010-01-21T09:00:00Z,29.1874,-90.6654,98.7,1111122 
LUMCON,ioos:station:LUMCON:105:1,2010-01-21T10:00:00Z,29.1874,-90.6654,98.7,1111122 
LUMCON,ioos:station:LUMCON:105:1,2010-01-21T11:00:00Z,29.1874,-90.6654,98.1,1111122 
LUMCON,ioos:station:LUMCON:105:1,2010-01-21T12:00:00Z,29.1874,-90.6654,98.7,1111122 
LUMCON,ioos:station:LUMCON:105:1,2010-01-21T13:00:00Z,29.1874,-90.6654,98.1,1111122 
LUMCON,ioos:station:LUMCON:105:1,2010-01-21T14:00:00Z,29.1874,-90.6654,98.1,1111122 
LUMCON,ioos:station:LUMCON:105:1,2010-01-21T15:00:00Z,29.1874,-90.6654,96.9,1111122 
LUMCON,ioos:station:LUMCON:105:1,2010-01-21T16:00:00Z,29.1874,-90.6654,96.3,1111122 
LUMCON,ioos:station:LUMCON:105:1,2010-01-21T17:00:00Z,29.1874,-90.6654,95.0,1111122 
LUMCON,ioos:station:LUMCON:105:1,2010-01-21T18:00:00Z,29.1874,-90.6654,98.7,1111122 
LUMCON,ioos:station:LUMCON:105:1,2010-01-21T19:00:00Z,29.1874,-90.6654,97.4,1111122 
LUMCON,ioos:station:LUMCON:105:1,2010-01-21T20:00:00Z,29.1874,-90.6654,96.8,1111122 
LUMCON,ioos:station:LUMCON:105:1,2010-01-21T21:00:00Z,29.1874,-90.6654,91.9,1111122 
LUMCON,ioos:station:LUMCON:105:1,2010-01-21T22:00:00Z,29.1874,-90.6654,76.4,1111122 
LUMCON,ioos:station:LUMCON:105:1,2010-01-21T23:00:00Z,29.1874,-90.6654,77.9,1111122 
LUMCON,ioos:station:LUMCON:105:1,2010-01-22T00:00:00Z,29.1874,-90.6654,80.8,1111122 
LUMCON,ioos:station:LUMCON:105:1,2010-01-22T01:00:00Z,29.1874,-90.6654,83.9,1111122 
LUMCON,ioos:station:LUMCON:105:1,2010-01-22T02:00:00Z,29.1874,-90.6654,88.9,1111122 
LUMCON,ioos:station:LUMCON:105:1,2010-01-22T03:00:00Z,29.1874,-90.6654,93.6,1111122 
LUMCON,ioos:station:LUMCON:105:1,2010-01-22T04:00:00Z,29.1874,-90.6654,92.4,1111122 
LUMCON,ioos:station:LUMCON:105:1,2010-01-22T05:00:00Z,29.1874,-90.6654,91.9,1111122 
LUMCON,ioos:station:LUMCON:105:1,2010-01-22T06:00:00Z,29.1874,-90.6654,91.3,1111122 
LUMCON,ioos:station:LUMCON:105:1,2010-01-22T07:00:00Z,29.1874,-90.6654,92.5,1111122 
LUMCON,ioos:station:LUMCON:105:1,2010-01-22T08:00:00Z,29.1874,-90.6654,93.0,1111122 
LUMCON,ioos:station:LUMCON:105:1,2010-01-22T09:00:00Z,29.1874,-90.6654,93.7,1111122 
LUMCON,ioos:station:LUMCON:105:1,2010-01-22T10:00:00Z,29.1874,-90.6654,93.0,1111122 
LUMCON,ioos:station:LUMCON:105:1,2010-01-22T11:00:00Z,29.1874,-90.6654,93.6,1111122 
LUMCON,ioos:station:LUMCON:105:1,2010-01-22T12:00:00Z,29.1874,-90.6654,90.0,1111122 
LUMCON,ioos:station:LUMCON:105:1,2010-01-22T13:00:00Z,29.1874,-90.6654,87.0,1111122 
LUMCON,ioos:station:LUMCON:105:1,2010-01-22T14:00:00Z,29.1874,-90.6654,81.5,1111122 
LUMCON,ioos:station:LUMCON:105:1,2010-01-22T15:00:00Z,29.1874,-90.6654,73.3,1111122 
LUMCON,ioos:station:LUMCON:105:1,2010-01-22T16:00:00Z,29.1874,-90.6654,70.5,1111122 
LUMCON,ioos:station:LUMCON:105:1,2010-01-22T17:00:00Z,29.1874,-90.6654,74.0,1111122 
LUMCON,ioos:station:LUMCON:105:1,2010-01-22T18:00:00Z,29.1874,-90.6654,72.1,1111122 
LUMCON,ioos:station:LUMCON:105:1,2010-01-22T19:00:00Z,29.1874,-90.6654,74.1,1111122 
LUMCON,ioos:station:LUMCON:105:1,2010-01-22T20:00:00Z,29.1874,-90.6654,72.2,1111122 
LUMCON,ioos:station:LUMCON:105:1,2010-01-22T21:00:00Z,29.1874,-90.6654,77.1,1111122 
LUMCON,ioos:station:LUMCON:105:1,2010-01-22T22:00:00Z,29.1874,-90.6654,77.6,1111122 
LUMCON,ioos:station:LUMCON:105:1,2010-01-22T23:00:00Z,29.1874,-90.6654,74.1,1111122 
LUMCON,ioos:station:LUMCON:105:1,2010-01-23T00:00:00Z,29.1874,-90.6654,75.5,1111122 
LUMCON,ioos:station:LUMCON:105:1,2010-01-23T01:00:00Z,29.1874,-90.6654,81.1,1111122 
LUMCON,ioos:station:LUMCON:105:1,2010-01-23T02:00:00Z,29.1874,-90.6654,85.0,1111122 
LUMCON,ioos:station:LUMCON:105:1,2010-01-23T03:00:00Z,29.1874,-90.6654,87.8,1111122 
LUMCON,ioos:station:LUMCON:105:1,2010-01-23T04:00:00Z,29.1874,-90.6654,86.7,1111122 
LUMCON,ioos:station:LUMCON:105:1,2010-01-23T05:00:00Z,29.1874,-90.6654,84.4,1111122 
LUMCON,ioos:station:LUMCON:105:1,2010-01-23T06:00:00Z,29.1874,-90.6654,89.5,1111122 
LUMCON,ioos:station:LUMCON:105:1,2010-01-23T07:00:00Z,29.1874,-90.6654,91.9,1111122 
LUMCON,ioos:station:LUMCON:105:1,2010-01-23T08:00:00Z,29.1874,-90.6654,93.7,1111122 
LUMCON,ioos:station:LUMCON:105:1,2010-01-23T09:00:00Z,29.1874,-90.6654,95.6,1111122 
LUMCON,ioos:station:LUMCON:105:1,2010-01-23T10:00:00Z,29.1874,-90.6654,96.2,1111122 
LUMCON,ioos:station:LUMCON:105:1,2010-01-23T11:00:00Z,29.1874,-90.6654,97.4,1111122 
LUMCON,ioos:station:LUMCON:105:1,2010-01-23T12:00:00Z,29.1874,-90.6654,97.4,1111122 